[[{"header":{"parameterUnit":"m.s-1","parameterCategory":1,"la1":30.2991,"la2":30.254,"lo1":-89.0895,"lo2":-89.0444,"dy":0.0017,"dx":0.0017,"nx":28,"ny":28,"refTime":"2024-05-07T09:00:00:Z","depth":0,"parameterNumber":2,"parameterNumberName":"U-component_of_WINDS"},"data":[0,0,0,0,0,0,0,0,0,0,0,0,0,0,0,0,0,0,0,0,0,0,0,0,0,0,0,0,0,0,0,0,0,0,0,0,0,0,0,0,0,0,0,0,0,0,0,0,0,0,0,0,0,0,0,0,0,0,0.5231,0.5231,0,0.5217,0.5217,0.5217,0.5183,0.5182,0.5181,0.5181,0.5167,0.5167,0.5167,0,0,0,0,0,0,0,0,0,0,0,0,0,0.5228,0.5228,0.5231,0.5231,0.523,0.5217,0.5217,0.5217,0.5183,0.5182,0.5181,0.518,0.5167,0.5167,0.5167,0,0,0,0,0,0,0,0,0,0,0,0,0,0.5223,0.5228,0.5231,0.5212,0.521,0.5217,0.5217,0.5216,0.5183,0.5182,0.5181,0.518,0.5167,0.5167,0.5167,0.5191,0,0,0.5169,0.5169,0,0,0,0,0,0,0,0,0.5224,0.5223,0.5215,0.5213,0.5211,0.52,0.5211,0.5208,0.5183,0.5193,0.5181,0.518,0.5179,0.5178,0.5178,0.5191,0.519,0.5169,0.5169,0.5169,0.5169,0,0,0,0,0,0,0,0.5224,0.5224,0.5225,0.5215,0.5213,0.5204,0.5202,0.521,0.5192,0.5193,0.519,0.5189,0.5178,0.5178,0.5177,0.519,0.5169,0.5169,0.5169,0.517,0.522,0.5221,0,0,0,0,0,0,0.5227,0.5224,0.5226,0.5225,0.5215,0.5205,0.5203,0.5205,0.5192,0.5189,0.519,0.5187,0.5177,0.5177,0.5177,0.5203,0.5169,0.517,0.517,0.5219,0.522,0.5221,0,0,0,0,0,0,0.5227,0.5227,0.5226,0.5224,0.5223,0.5206,0.5209,0.5205,0.5205,0.519,0.5187,0.5193,0.5177,0.5176,0.5188,0.5202,0.517,0.517,0.5218,0.5219,0.5221,0.5256,0,0,0,0,0,0,0.5227,0.5228,0.5237,0.5224,0.5223,0.5238,0.521,0.5206,0.5206,0.5203,0.5192,0.5189,0.5176,0.5187,0.5188,0.5202,0.517,0.5216,0.5218,0.522,0.5253,0.5258,0.5263,0,0,0,0,0,0.5227,0.5247,0.5237,0.5238,0.5234,0.5238,0.5238,0.5222,0.5207,0.5216,0.5206,0.519,0.52,0.5189,0.5189,0.5203,0.5215,0.5218,0.522,0.5251,0.5257,0.5263,0,0,0,0,0,0,0.5262,0.5245,0.5234,0.5251,0.5246,0.5233,0.5243,0.5229,0.5228,0.5225,0.5205,0.5203,0.5217,0.5212,0.5199,0.5225,0.5205,0.5208,0.5228,0.5234,0.5239,0.5239,0.5171,0,0,0,0,0,0.5272,0.5276,0.5262,0.5278,0.5276,0.526,0.5262,0.5249,0.5244,0.5242,0.5233,0.5228,0.523,0.5232,0.5233,0.5252,0.5249,0.5263,0.5267,0.5271,0.5274,0.5282,0.5288,0.5229,0.5229,0.5229,0,0,0.5292,0.5283,0.5287,0.5285,0.528,0.5285,0.5259,0.5266,0.5269,0.5243,0.5253,0.5246,0.5239,0.5255,0.5261,0.525,0.5289,0.5274,0.5278,0.5278,0.5285,0.5291,0.5296,0.5231,0.5231,0.5231,0,0,0.533,0.5325,0.5337,0.5332,0.5325,0.5314,0.5317,0.5306,0.53,0.531,0.529,0.5294,0.5298,0.5294,0.5292,0.5329,0.5314,0.533,0.5355,0.5363,0.5368,0.5372,0.5384,0.5389,0.5333,0.5333,0.5333,0,0.5356,0.5363,0.5345,0.5353,0.5352,0.5328,0.534,0.5337,0.533,0.533,0.5319,0.5323,0.5317,0.533,0.5339,0.5339,0.5341,0.5331,0.5369,0.5373,0.5376,0.5387,0.5392,0.5335,0.5335,0.5334,0.5334,0,0.5394,0.5399,0.541,0.5404,0.5404,0.5414,0.5398,0.5401,0.5388,0.5379,0.5389,0.538,0.5379,0.5382,0.537,0.5393,0.5387,0.5372,0.5351,0.5384,0.5394,0.5398,0.5338,0.5337,0.5336,0.5336,0,0,0.5454,0.5437,0.5442,0.5438,0.5428,0.5432,0.5441,0.5439,0.5441,0.5438,0.5444,0.5448,0.5434,0.5433,0.542,0.5428,0.5456,0.5413,0.5412,0.542,0.548,0.549,0.5495,0.5446,0.5447,0.5448,0.548,0,0.5489,0.5502,0.5487,0.5504,0.5508,0.5485,0.5493,0.5487,0.5479,0.5481,0.5471,0.5474,0.5456,0.5455,0.5462,0.5452,0.5468,0.5449,0.5451,0.5452,0.5453,0.5501,0.5512,0.5543,0.5484,0.5485,0.5485,0,0.5532,0.5529,0.5547,0.5535,0.5536,0.5543,0.554,0.5542,0.5536,0.5529,0.5527,0.5512,0.5519,0.55,0.5509,0.5497,0.5497,0.5492,0.5493,0.5492,0.547,0.55,0.5552,0.5557,0.5492,0.5491,0.5491,0,0.5572,0.5574,0.5584,0.5582,0.5568,0.5574,0.5569,0.5561,0.5561,0.5558,0.5558,0.5556,0.5555,0.5555,0.554,0.5527,0.5551,0.553,0.5544,0.5545,0.555,0.5549,0.5602,0.5552,0.5552,0.5552,0.5551,0,0.5612,0.5623,0.5601,0.5607,0.5619,0.5601,0.5613,0.5606,0.5599,0.5603,0.5584,0.5588,0.5569,0.5571,0.556,0.5568,0.5569,0.5563,0.5559,0.5564,0.5564,0.5563,0.556,0.5553,0.5553,0.5552,0.5552,0,0.5658,0.5644,0.5654,0.5641,0.5638,0.5647,0.5635,0.564,0.563,0.5636,0.5636,0.562,0.5622,0.5607,0.5606,0.5598,0.5612,0.5605,0.5614,0.5611,0.5626,0.5625,0.5678,0.5684,0.5632,0.5632,0.5633,0,0.5684,0.5692,0.568,0.5681,0.5677,0.5679,0.5679,0.5662,0.5662,0.5655,0.566,0.566,0.5659,0.5662,0.5651,0.565,0.5642,0.5661,0.5642,0.5646,0.5641,0.564,0.5641,0.5665,0.5666,0.5666,0.5667,0,0.5732,0.5724,0.5724,0.5722,0.5722,0.5719,0.5715,0.5718,0.5699,0.57,0.5701,0.57,0.5699,0.5699,0.5695,0.569,0.5675,0.5673,0.5676,0.568,0.5684,0.5681,0.5624,0.5671,0.5671,0.5671,0.567,0.567,0.5768,0.5773,0.5765,0.5766,0.5761,0.5758,0.5761,0.5752,0.5752,0.575,0.574,0.5742,0.5735,0.5729,0.5725,0.5726,0.5717,0.5722,0.5723,0.5724,0.5726,0.5685,0.5726,0.5726,0.5725,0.5725,0.5725,0,0.5813,0.5806,0.5807,0.5802,0.5802,0.5789,0.5784,0.5785,0.5787,0.5782,0.5781,0.5782,0.5782,0.577,0.5768,0.5772,0.5765,0.5772,0.5771,0.5769,0.5735,0.5732,0.5777,0.5777,0.5777,0.5777,0.5777,0.5777,0.5836,0.5844,0.5836,0.5842,0.5835,0.5837,0.5836,0.5832,0.5828,0.5829,0.5829,0.5822,0.5813,0.5811,0.581,0.5807,0.5806,0.5815,0.581,0.5777,0.5772,0.5767,0.5764,0.5816,0.5816,0.5844,0.5844,0.5844]},{"header":{"parameterUnit":"m.s-1","parameterCategory":1,"la1":30.2991,"la2":30.254,"lo1":-89.0895,"lo2":-89.0444,"dy":0.0017,"dx":0.0017,"nx":28,"ny":28,"refTime":"2024-05-07T09:00:00:Z","depth":0,"parameterNumber":3,"parameterNumberName":"V-component_of_WINDS"},"data":[0,0,0,0,0,0,0,0,0,0,0,0,0,0,0,0,0,0,0,0,0,0,0,0,0,0,0,0,0,0,0,0,0,0,0,0,0,0,0,0,0,0,0,0,0,0,0,0,0,0,0,0,0,0,0,0,0,0,6.651,6.6511,0,6.6623,6.6624,6.6625,6.6587,6.6585,6.6582,6.658,6.6688,6.6693,6.6698,0,0,0,0,0,0,0,0,0,0,0,0,0,6.6253,6.6258,6.651,6.6511,6.6513,6.6623,6.6624,6.6626,6.6588,6.6585,6.6582,6.6579,6.6686,6.6692,6.6699,0,0,0,0,0,0,0,0,0,0,0,0,0,6.6365,6.626,6.651,6.6507,6.6508,6.6622,6.6624,6.6626,6.6588,6.6585,6.6581,6.6578,6.6684,6.6692,6.6699,6.6821,0,0,6.6723,6.6726,0,0,0,0,0,0,0,0,6.6359,6.6374,6.6506,6.6508,6.6509,6.6587,6.6573,6.6691,6.6589,6.6558,6.658,6.6576,6.6657,6.6667,6.6696,6.6826,6.683,6.6724,6.6728,6.6732,6.6734,0,0,0,0,0,0,0,6.6351,6.6369,6.6554,6.6508,6.651,6.6498,6.651,6.6595,6.6626,6.656,6.6558,6.6572,6.6657,6.6688,6.6698,6.6832,6.6724,6.673,6.6735,6.6738,6.7065,6.7069,0,0,0,0,0,0,6.6344,6.6363,6.6551,6.6558,6.6423,6.6505,6.6519,6.6566,6.6625,6.6631,6.6575,6.657,6.6677,6.6689,6.6702,6.6847,6.6732,6.6739,6.6743,6.7061,6.7066,6.707,0,0,0,0,0,0,6.6338,6.6361,6.6546,6.646,6.6483,6.6514,6.6567,6.657,6.6601,6.6637,6.6641,6.6602,6.6675,6.6691,6.6792,6.685,6.6742,6.6749,6.7056,6.7063,6.7068,6.7138,0,0,0,0,0,0,6.6331,6.6359,6.6407,6.6461,6.6487,6.6637,6.6571,6.6575,6.6616,6.661,6.6663,6.6668,6.6673,6.678,6.6799,6.6859,6.6756,6.7051,6.7059,6.7066,6.7131,6.7146,6.7159,0,0,0,0,0,6.6322,6.6421,6.641,6.6433,6.6549,6.664,6.6655,6.666,6.6621,6.6668,6.669,6.6667,6.6841,6.6791,6.6812,6.6875,6.7048,6.7057,6.7066,6.7125,6.7143,6.7159,0,0,0,0,0,0,6.637,6.6428,6.6416,6.6537,6.6584,6.6634,6.6694,6.668,6.6738,6.673,6.6732,6.6744,6.6847,6.6871,6.6814,6.6994,6.6938,6.6952,6.6975,6.6993,6.7007,6.6999,6.6762,0,0,0,0,0,6.6396,6.6468,6.6513,6.6614,6.6639,6.6663,6.6703,6.6703,6.6751,6.677,6.68,6.6846,6.691,6.6953,6.7015,6.7134,6.7144,6.7187,6.7201,6.7213,6.7224,6.7288,6.7307,6.71,6.71,6.71,0,0,6.6447,6.6488,6.6533,6.6625,6.6662,6.6734,6.668,6.6758,6.6811,6.6781,6.6879,6.6903,6.6953,6.7064,6.7114,6.7087,6.7284,6.7224,6.7233,6.7239,6.7299,6.7319,6.7336,6.7107,6.7105,6.7104,0,0,6.6578,6.6617,6.6706,6.6744,6.6802,6.6817,6.6838,6.689,6.6905,6.7004,6.6983,6.7044,6.7156,6.7193,6.7226,6.7371,6.7351,6.7391,6.7464,6.7526,6.7543,6.7557,6.7608,6.7626,6.7403,6.7403,6.7403,0,6.6635,6.6745,6.6752,6.6833,6.6874,6.6853,6.6941,6.6977,6.705,6.7077,6.7046,6.7187,6.7219,6.7338,6.7373,6.7401,6.7424,6.7385,6.754,6.7555,6.7568,6.7617,6.7636,6.7407,6.7407,6.7406,6.7406,0,6.6811,6.6888,6.6952,6.7027,6.7074,6.7158,6.7175,6.7222,6.7218,6.7235,6.7335,6.7373,6.7442,6.747,6.7466,6.7588,6.7569,6.7539,6.7483,6.7592,6.7638,6.7656,6.7414,6.7412,6.7411,6.741,0,0,6.6976,6.7054,6.7077,6.711,6.7172,6.723,6.7312,6.7382,6.7421,6.7472,6.754,6.7635,6.7608,6.7646,6.7646,6.77,6.7811,6.7663,6.7664,6.7689,6.7947,6.7969,6.799,6.7799,6.7802,6.7805,6.7942,0,6.7111,6.7259,6.7267,6.74,6.747,6.745,6.7521,6.7566,6.7584,6.7644,6.7662,6.773,6.7689,6.7712,6.7766,6.7787,6.7863,6.7777,6.7859,6.7862,6.7847,6.8014,6.8038,6.8165,6.796,6.7963,6.7965,0,6.729,6.7349,6.749,6.7541,6.7571,6.7635,6.7699,6.7758,6.7806,6.7815,6.7858,6.785,6.7931,6.7872,6.7983,6.7925,6.7958,6.7974,6.7979,6.7986,6.792,6.8025,6.8206,6.8225,6.7993,6.7991,6.7989,0,6.7395,6.751,6.7609,6.7638,6.77,6.7746,6.7773,6.7819,6.786,6.7915,6.7942,6.8005,6.8039,6.8087,6.8095,6.8051,6.8206,6.8147,6.8214,6.8214,6.8247,6.8244,6.8435,6.827,6.8269,6.8269,6.8269,0,6.7546,6.7632,6.7657,6.7718,6.7813,6.782,6.7914,6.7937,6.7978,6.8041,6.8027,6.8086,6.8094,6.8154,6.816,6.825,6.8266,6.8274,6.8274,6.8275,6.8274,6.8297,6.8288,6.8274,6.8273,6.8272,6.8271,0,6.7679,6.77,6.7806,6.7857,6.7872,6.794,6.7982,6.8039,6.8056,6.8136,6.8155,6.818,6.825,6.8264,6.8345,6.835,6.8457,6.8449,6.8442,6.8441,6.8506,6.8499,6.8718,6.8746,6.8562,6.8564,6.8566,0,6.7774,6.784,6.7899,6.7942,6.7973,6.8041,6.8084,6.8093,6.8137,6.8197,6.8246,6.8316,6.8371,6.8484,6.8508,6.857,6.8563,6.8635,6.8572,6.857,6.8563,6.8559,6.8565,6.8647,6.8649,6.865,6.8652,0,6.7939,6.7946,6.801,6.8077,6.8129,6.8181,6.8231,6.8266,6.8281,6.8331,6.8404,6.8448,6.8532,6.86,6.8662,6.8688,6.8672,6.8672,6.869,6.8691,6.8684,6.8688,6.8474,6.8666,6.8665,6.8664,6.8663,6.8662,6.8056,6.8114,6.8165,6.8236,6.8274,6.8321,6.8377,6.8402,6.8464,6.8535,6.8536,6.8615,6.866,6.8743,6.8772,6.8833,6.8809,6.8836,6.8843,6.8849,6.8855,6.8675,6.8844,6.8843,6.8843,6.8843,6.8842,0,6.822,6.8252,6.8317,6.8389,6.8444,6.8427,6.8481,6.8527,6.8598,6.8643,6.8699,6.8782,6.8848,6.8878,6.8942,6.8984,6.8979,6.9001,6.8997,6.9003,6.8873,6.885,6.9004,6.9004,6.9004,6.9004,6.9004,6.9004,6.8312,6.8409,6.8422,6.8537,6.8568,6.8648,6.868,6.8722,6.8758,6.8852,6.8908,6.8928,6.8966,6.9033,6.9092,6.9099,6.9123,6.9148,6.9152,6.9029,6.9013,6.8997,6.8976,6.9154,6.9154,6.9277,6.9278,6.9279]}]]